Regional Weather Roundup
Issued by NWS

Home | Current Version | Previous Version | Text Only | Print | Product List | Glossary On
Versions: 1 2 3 4 5 6 7 8 9 10 11 12 13 14 15 16 17 18 19 20 21 22 23 24 25 26 27 28 29 30 31 32 33 34 35 36 37 38 39 40 41 42 43 44 45 46 47 48 49 50
000
ASUS43 KIND 222209
RWRIN

WEATHER ROUNDUP FOR INDIANA
NATIONAL WEATHER SERVICE INDIANAPOLIS IN
600 PM EDT FRI MAY 22 2015

NOTE: "FAIR" INDICATES FEW OR NO CLOUDS BELOW 12,000 FEET WITH NO
SIGNIFICANT WEATHER AND/OR OBSTRUCTIONS TO VISIBILITY.

* - STATION DOES NOT REPORT WEATHER SUCH AS PRECIPITATION OR FOG.

+ - STATION NOT QUALITY CONTROLLED BY THE NATIONAL WEATHER SERVICE.
    USE DATA WITH CAUTION...ESPECIALLY DEWPOINT AND RELATIVE
    HUMIDITY OBSERVATIONS.

INZ001>003-010>013-019-020-222300-
NORTHWEST INDIANA

CITY           SKY/WX    TMP DP  RH WIND       PRES   REMARKS
GARY /AIRPORT/ PTSUNNY   55  37  50 NE9       30.28R
KNOX *+        MOSUNNY   68  34  28 N13       30.23R
LA PORTE +     SUNNY     68  33  27 N9        30.26R
MICHIGAN CITY+ SUNNY     61  34  36 N9        30.27R
MONTICELLO +   PTSUNNY   75  39  27 N9G16     30.21R
RENSSELAER +   PTSUNNY   72  32  23 N12       30.23R
VALPARAISO     FAIR      67  33  28 NE8       30.25R

$$

LMZ046-743>745-222300-
SOUTHERN LAKE MICHIGAN

STATION/POSITION TIME  TEMP    WIND        PRES    WAVE
                       AIR SEA DIR/SP/G            HT
                 (UTC) (F)     (DEG/KT/KT) (MB)    (FT)
BURNS HARBOR     2200   53      60/ 10/ 11 1025.7R
MICHIGAN CITY    2200   52      30/ 13/ 14   N/A
5NW MICH CITY    2200   51 51   70/ 10/ 12   N/A     2

$$

INZ004-005-014>016-021>024-222300-
NORTH CENTRAL INDIANA

CITY           SKY/WX    TMP DP  RH WIND       PRES   REMARKS
ELKHART        SUNNY     66  30  26 N9        30.25R
GOSHEN         SUNNY     69  37  30 NW14G21   30.23R
LOGANSPORT +   PTSUNNY   73  27  17 N8        30.21S
ROCHESTER +    SUNNY     72  34  25 NE7       30.22S
SOUTH BEND     SUNNY     68  32  26 N13       30.25S
WARSAW +       SUNNY     68  36  30 NW8       30.22S

$$

INZ006>009-017-018-025>027-222300-
NORTHEAST INDIANA

CITY           SKY/WX    TMP DP  RH WIND       PRES   REMARKS
ANGOLA *+      SUNNY     70  36  28 NW8       30.23R
AUBURN +       SUNNY     70  34  26 NW8       30.23S
FORT WAYNE     MOSUNNY   71  39  31 N12       30.22S
HUNTINGTON +   SUNNY     70  32  24 NW8       30.22R

$$

INZ028-029-035-036-043>045-051>053-222300-
WEST CENTRAL INDIANA

CITY           SKY/WX    TMP DP  RH WIND       PRES   REMARKS
CRAWFORDSVL +  PTSUNNY   71  34  25 NW3       30.21S
GREENCASTLE +  PTSUNNY   72  41  33 CALM      30.22S
LAFAYETTE      PTSUNNY   72  41  32 W7        30.20S
TERRE HAUTE    PTSUNNY   74  48  39 S5        30.22S

$$

INZ030>032-037>040-046>048-054>057-064-065-222300-
CENTRAL INDIANA

CITY           SKY/WX    TMP DP  RH WIND       PRES   REMARKS
CP ATTERBURY + PTSUNNY   72  46  40 SW10      30.23R
COLUMBUS       MOSUNNY   72  37  28 SW13      30.22S
FISHERS *+     PTSUNNY   72  48  43 NW6       30.22R
FRANKFORT +    PTSUNNY   73  42  31 NW3       30.24R
GREENWOOD *+   PTSUNNY   75  36  23 W8        30.22S
INDIANAPOLIS   CLOUDY    75  42  30 W10       30.20S
-EAGLE CREEK   PTSUNNY   73  43  33 NW7       30.21R
KOKOMO *+      PTSUNNY   73  39  29 N6        30.21S
MARION +       MOSUNNY   71  34  25 NW3       30.21S
MT COMFORT *+  PTSUNNY   73  23  15 NW9G16    30.22R
SHELBYVILLE    PTSUNNY   76  43  30 W13       30.20S
ZIONSVILLE +   PTSUNNY   73  43  34 NW8       30.23R

$$

INZ033-034-041-042-049-050-058-059-222300-
EAST CENTRAL INDIANA

CITY           SKY/WX    TMP DP  RH WIND       PRES   REMARKS
MUNCIE         MOSUNNY   73  41  31 NW5       30.21R

$$

INZ060-061-067>069-081>083-085>088-222300-
SOUTHWEST INDIANA

CITY           SKY/WX    TMP DP  RH WIND       PRES   REMARKS
EVANSVILLE     PTSUNNY   74  49  41 W6        30.24S
HUNTINGBURG *+ PTSUNNY   72  52  49 W9        30.24F
WASHINGTON +   CLOUDY    75  37  24 W10       30.22F

$$

INZ062-063-066-070>080-084-089>092-222300-
SOUTH CENTRAL AND SOUTHEAST INDIANA

CITY           SKY/WX    TMP DP  RH WIND       PRES   REMARKS
BLOOMINGTON    PTSUNNY   73  44  35 SW9       30.23S
MADISON *+     PTSUNNY   73  39  29 W14       30.25S
NORTH VERNON + PTSUNNY   73  43  33 W10       30.23S
SEYMOUR +      MOSUNNY   75  48  38 MISG      30.23R

$$



USA.gov is the U.S. government's official web portal to all federal, state and local government web resources and services.